Flag for Germany Weather past 2 weeks in Gifhorn, Lower Saxony, Germany

Now
63 °F

Passing clouds.


Feels Like: 63 °F
Forecast: 50 / 71 °F
Wind: 9 mph from East

Location: Braunschweig


UV Index: 3 (Moderate)

Visibility: N/A


Pressure: 30.09 "Hg

Humidity: 77%

Dew point: 55 °F

Location of GifhornLocation

Historic Weather in Gifhorn

°F

Gifhorn temperature yesterday

Maximum temperature yesterday: 70 °F (at 3:50 PM)
Minimum temperature yesterday: 45 °F (at 6:20 AM)
Average temperature yesterday: 61 °F

Past Weeks' High & Low Weather Summary

 TemperatureHumidityPressure
High70 °F (Apr 23, 3:50 PM)100% (Apr 9, 5:50 PM)30.48 "Hg (Apr 9, 5:50 PM)
Low32 °F (Apr 16, 6:50 AM)33% (Apr 17, 2:50 PM)29.68 "Hg (Apr 21, 4:50 PM)
Average52 °F80%30.07 "Hg
* Reported Apr 9 5:20 PM — Apr 24 5:50 PM, Gifhorn, Weather by CustomWeather, © 2014

Note: Actual official high and low records may vary slightly from our data, if they occured in-between our weather recording intervals... More about our weather records

Advertising

Historic Weather Conditions — Data for Previous 24 hours

 ConditionsComfort  
Time TempWeatherWind HumidityBarometerVisibility
5:50 PM
Apr 24
63 °FPassing clouds.8 mph83%30.09 "HgN/A
5:20 PM63 °FPassing clouds.7 mph88%30.09 "HgN/A
4:50 PM63 °FPassing clouds.6 mph83%30.12 "HgN/A
4:20 PM61 °FPartly sunny.6 mph88%30.12 "HgN/A
3:50 PM61 °FPartly sunny.7 mph94%30.12 "HgN/A
3:20 PM59 °FPartly sunny.7 mph100%30.15 "HgN/A
2:50 PM57 °FPartly sunny.7 mph100%30.15 "HgN/A
2:20 PM59 °FPartly sunny.6 mph100%30.15 "HgN/A
1:50 PM57 °FLow clouds.6 mph100%30.15 "Hg6 mi
1:20 PM55 °FLow clouds.6 mph100%30.15 "Hg5 mi
12:50 PM55 °FLow clouds.5 mph100%30.15 "Hg5 mi
12:20 PM54 °FLow clouds.5 mph100%30.15 "Hg4 mi
11:50 AM54 °FLow clouds.5 mph100%30.18 "Hg4 mi
11:20 AM54 °FLow clouds.7 mph100%30.18 "Hg4 mi
10:50 AM54 °FFog.5 mph100%30.18 "Hg2 mi
10:20 AM52 °FFog.6 mph100%30.18 "Hg1 mi
9:50 AM52 °FFog.5 mph100%30.18 "Hg1 mi
9:20 AM50 °FFog.6 mph100%30.18 "Hg1 mi
8:50 AM50 °FFog.5 mph100%30.15 "Hg1 mi
8:20 AM50 °FFog.5 mph100%30.15 "Hg1 mi
7:50 AM52 °FFog.7 mph100%30.15 "Hg1 mi
7:20 AM52 °FFog.6 mph100%30.15 "Hg1 mi
6:50 AM54 °FFog.7 mph100%30.15 "Hg1 mi
9:50 PM
Apr 23
55 °FClear.5 mph94%30.12 "Hg10 mi
9:20 PM59 °FSunny.5 mph82%30.12 "Hg10 mi
8:50 PM59 °FSunny.5 mph88%30.12 "Hg10 mi
8:20 PM61 °FPassing clouds.5 mph83%30.09 "HgN/A
7:50 PM63 °FSunny.6 mph77%30.09 "Hg10 mi
7:20 PM64 °FPassing clouds.7 mph73%30.09 "HgN/A
Weather by CustomWeather, © 2014

See weather overview